Weather History for Krasnodar, Russia

Change the Weather History Date:

Thursday, January 17, 2013

  Actual Average Record
Temperature  
Mean Temperature 40 °F -  
Max Temperature 51 °F - - ()
Min Temperature 28 °F - - ()
Degree Days  
Heating Degree Days 26    
Moisture  
Dew Point 28 °F    
Average Humidity 71    
Maximum Humidity 86    
Minimum Humidity 35    
Precipitation  
Precipitation 0.00 in 0.07 in - ()
Sea Level Pressure  
Sea Level Pressure 29.79 in    
Wind  
Wind Speed 6 mph ()    
Max Wind Speed 13 mph    
Max Gust Speed 20 mph    
Visibility 6.2 miles    
Events      
T = Trace of Precipitation, MM = Missing Value Source: Averaged Metar Reports

Daily Weather History Graph

Daily Weather History Graph

Search for Another Location

Airport:

Trip Planner

Search our weather history database for the weather conditions in past years. The results will help you decide how hot, cold, wet, or windy it might be!

Date:

Astronomy

Jan. 17, 2013 Rise Set
Actual Time 8:57 AM MSK 6:10 PM MSK
Civil Twilight 8:24 AM MSK 6:43 PM MSK
Nautical Twilight 7:48 AM MSK 7:19 PM MSK
Astronomical Twilight 7:13 AM MSK 7:54 PM MSK
Moon 11:34 AM MSK (1/17) No Moon Set
Length of Visible Light 10h 18m
Length of Day
9h 13m
Waxing Crescent, 34% of the Moon is Illuminated
Jan 17
Waxing Crescent
Jan 19
First Quarter
Jan 27
Full
Feb 3
Last Quarter
Feb 10
New

Hourly Weather History & Observations

Time (MSK) Temp. Windchill Dew Point Humidity Pressure Visibility Wind Dir Wind Speed Gust Speed Precip Events Conditions
12:00 AM 30.2 °F 22.1 °F 24.8 °F 80% 29.95 in - East 8.9 mph - N/A   Clear
12:30 AM 30.2 °F 23.5 °F 24.8 °F 80% 29.95 in - East 6.7 mph - N/A   Clear
1:00 AM 30.2 °F 25.5 °F 24.8 °F 80% 29.92 in - East 4.5 mph - N/A   Clear
1:30 AM 28.4 °F 21.4 °F 24.8 °F 86% 29.89 in - East 6.7 mph - N/A   Clear
2:00 AM 28.4 °F 21.4 °F 24.8 °F 86% 29.89 in - East 6.7 mph - N/A   Clear
2:30 AM 30.2 °F 25.5 °F 24.8 °F 80% 29.89 in - East 4.5 mph - N/A   Clear
3:00 AM 30.2 °F 23.5 °F 24.8 °F 80% 29.89 in - East 6.7 mph - N/A   Clear
3:30 AM 30.2 °F 23.5 °F 24.8 °F 80% 29.86 in - East 6.7 mph - N/A   Clear
4:00 AM 30.2 °F 25.5 °F 24.8 °F 80% 29.86 in - East 4.5 mph - N/A   Clear
4:30 AM 30.2 °F 25.5 °F 24.8 °F 80% 29.86 in - ENE 4.5 mph - N/A   Clear
5:00 AM 30.2 °F 23.5 °F 24.8 °F 80% 29.83 in - East 6.7 mph - N/A   Clear
5:30 AM 30.2 °F 23.5 °F 24.8 °F 80% 29.83 in - East 6.7 mph - N/A   Clear
6:00 AM 30.2 °F 23.5 °F 24.8 °F 80% 29.83 in - East 6.7 mph - N/A   Clear
6:30 AM 30.2 °F 23.5 °F 24.8 °F 80% 29.80 in - NE 6.7 mph - N/A   Clear
7:00 AM 30.2 °F 22.1 °F 24.8 °F 80% 29.80 in - East 8.9 mph - N/A   Clear
7:30 AM 30.2 °F 25.5 °F 24.8 °F 80% 29.77 in - East 4.5 mph - N/A   Clear
8:00 AM 30.2 °F 25.5 °F 24.8 °F 80% 29.77 in - East 4.5 mph - N/A   Clear
8:30 AM 30.2 °F 25.5 °F 24.8 °F 80% 29.77 in - East 4.5 mph - N/A   Clear
9:00 AM 30.2 °F 25.5 °F 24.8 °F 80% 29.77 in 6.2 mi ENE 4.5 mph - N/A   Mostly Cloudy
9:30 AM 30.2 °F 23.5 °F 24.8 °F 80% 29.74 in 6.2 mi East 6.7 mph - N/A   Mostly Cloudy
10:00 AM 30.2 °F 25.5 °F 24.8 °F 80% 29.74 in 6.2 mi ENE 4.5 mph - N/A   Mostly Cloudy
10:30 AM 32.0 °F 27.6 °F 24.8 °F 75% 29.74 in 6.2 mi ESE 4.5 mph - N/A   Mostly Cloudy
11:00 AM 32.0 °F - 26.6 °F 80% 29.74 in 6.2 mi Variable 2.2 mph - N/A   Mostly Cloudy
11:30 AM 32.0 °F 27.6 °F 26.6 °F 80% 29.74 in 6.2 mi ENE 4.5 mph - N/A   Mostly Cloudy
12:00 PM 32.0 °F 27.6 °F 26.6 °F 80% 29.74 in 6.2 mi NE 4.5 mph - N/A   Mostly Cloudy
12:30 PM 33.8 °F 27.9 °F 26.6 °F 75% 29.71 in 6.2 mi ENE 6.7 mph - N/A   Mostly Cloudy
1:00 PM 33.8 °F 26.5 °F 28.4 °F 81% 29.71 in - ENE 8.9 mph - N/A   Clear
1:30 PM 33.8 °F 27.9 °F 28.4 °F 81% 29.71 in - ENE 6.7 mph - N/A   Clear
2:00 PM 35.6 °F - 28.4 °F 75% 29.71 in - Variable 2.2 mph - N/A   Clear
2:30 PM 37.4 °F 33.9 °F 28.4 °F 70% 29.71 in - East 4.5 mph - N/A   Clear
3:00 PM 41.0 °F 35.4 °F 30.2 °F 65% 29.68 in - East 8.9 mph - N/A   Clear
3:30 PM 44.6 °F 40.8 °F 28.4 °F 53% 29.71 in - West 6.7 mph 13.4 mph N/A   Clear
4:00 PM 51.8 °F - 24.8 °F 35% 29.71 in - SSW 4.5 mph - N/A   Clear
4:30 PM 51.8 °F - 26.6 °F 38% 29.71 in - SSW 13.4 mph - N/A   Clear
5:00 PM 48.2 °F - 30.2 °F 50% 29.74 in - SSW 11.2 mph - N/A   Clear
5:30 PM 48.2 °F - 30.2 °F 50% 29.74 in - SSW 11.2 mph 20.1 mph N/A   Clear
6:00 PM 48.2 °F - 28.4 °F 46% 29.74 in - SSW 13.4 mph 20.1 mph N/A   Clear
6:30 PM 46.4 °F 40.5 °F 30.2 °F 53% 29.77 in - South 13.4 mph 20.1 mph N/A   Clear
7:00 PM 46.4 °F 40.5 °F 30.2 °F 53% 29.77 in - SSW 13.4 mph 20.1 mph N/A   Clear
8:00 PM 44.6 °F 38.9 °F 30.2 °F 57% 29.80 in - SSW 11.2 mph - N/A   Clear
8:30 PM 44.6 °F 38.2 °F 32.0 °F 61% 29.80 in - SSW 13.4 mph 20.1 mph N/A   Clear
9:00 PM 44.6 °F 38.9 °F 32.0 °F 61% 29.83 in - SW 11.2 mph - N/A   Clear
9:30 PM 46.4 °F 41.2 °F 33.8 °F 62% 29.83 in - SW 11.2 mph - N/A   Clear
10:00 PM 46.4 °F 41.2 °F 35.6 °F 66% 29.83 in - SSW 11.2 mph - N/A   Clear
10:30 PM 44.6 °F 39.8 °F 35.6 °F 71% 29.83 in - SW 8.9 mph - N/A   Clear
11:00 PM 44.6 °F 39.8 °F 35.6 °F 71% 29.86 in - SW 8.9 mph - N/A   Clear
11:30 PM 44.6 °F 39.8 °F 37.4 °F 76% 29.86 in 6.2 mi SSW 8.9 mph - N/A   Mostly Cloudy